Погода в Княгининоке

Украина / Волынская область     50°47′48″N   25°16′03″E
темп.,
°C
ветер,
м/с
пор.,
м/с
влажн.,
%
обл.,
%
осадки,
мм/ч
давл.,
гПа
погр.,
м
7 мая, пт
пт700:00+5ююз469321 0.1 1012114
03:00+4ююз3692100 0.1 1011111
06:00+6ю4987100 0.0 1009222
09:00+7ю5992100 2.4 10091023
12:00+9ю51287100 1.7 1007795
15:00+10з598391 2.2 1006637
18:00+13зюз5772100 0.1 10051210
21:00+9зюз3689100 0.3 1006111
8 мая, сб
сб800:00+8зсз61290100 0.1 1007516
03:00+6з61188100 0.1 1010693
06:00+4з8148290 0.0 1011961
09:00+3зсз91595100 0.4 1014942
12:00+5сз9158789 0.4 10161241
15:00+8зсз8106483 0.9 10181675
18:00+7сз6106992 0.1 10191292
21:00+3сз22830 0.1 102122
9 мая, вс
вс900:00+2зюз22861 0.0 102222
03:00+2зюз36900 0.0 102393
06:00+1з34916 0.0 102448
09:00+8зюз236720 0.0 1026336
12:00+12юз23487 0.0 10251483
15:00+14юз344640 0.0 10241960
18:00+15ююз34494 0.0 10231696
21:00+9юв45696 0.0 102455
10 мая, пн
пн1000:00+7юв47758 0.0 1025100
03:00+6ююв49755 0.0 1025145
06:00+6юв410735 0.0 1025152
09:00+11юв6126263 0.0 1025464
12:00+16юв810526 0.0 10241043
15:00+18юв79495 0.0 10231309
18:00+18юв69585 0.0 10221080
21:00+12вюв5127636 0.0 1023238
11 мая, вт
вт1100:00+10юв514745 0.0 1024300
03:00+9юв615755 0.0 1023324
06:00+8юв514790 0.0 1023297
09:00+12юв712670 0.0 1023497
12:00+16юв79480 0.0 1022932
15:00+18юв79430 0.0 10201132
18:00+19юв69610 0.0 10191163
21:00+13вюв411840 0.0 1018221